This is the latest recevied weather packets stored in our database for station/object E20YUC-1. If no packets are shown the sender has not sent any weather packets the latest 10 day(s).
| Time | Temp. | Humidity | Pressure | Rain* | Wind** | Luminosity | Snow |
|---|---|---|---|---|---|---|---|
| 1777767634 | 33.33° C | 69% | 997.6 hPa | 0 mm | 0 m/s | - | - |
| 1777767332 | 33.89° C | 69% | 997.3 hPa | 0 mm | 0 m/s | - | - |
| 1777766732 | 33.33° C | 70% | 997.3 hPa | 0 mm | 0 m/s | - | - |
| 1777766433 | 32.78° C | 71% | 997.2 hPa | 0 mm | 0 m/s | - | - |
| 1777766134 | 32.22° C | 73% | 997.2 hPa | 0 mm | 0 m/s | - | - |
| 1777765472 | 31.11° C | 75% | 997 hPa | 0 mm | 0 m/s | - | - |
| 1777764872 | 30.56° C | 77% | 997 hPa | 0 mm | 0 m/s | - | - |
| 1777764574 | 30° C | 77% | 996.9 hPa | 0 mm | 0 m/s | - | - |
| 1777764272 | 30° C | 78% | 997 hPa | 0 mm | 0 m/s | - | - |
| 1777763972 | 30° C | 78% | 996.8 hPa | 0 mm | 0 m/s | - | - |
| 1777763372 | 29.44° C | 78% | 996.7 hPa | 0 mm | 0 m/s | - | - |
| 1777763073 | 29.44° C | 78% | 996.5 hPa | 0 mm | 0 m/s | - | - |
| 1777762472 | 29.44° C | 78% | 996.4 hPa | 0 mm | 0 m/s | - | - |
| 1777761871 | 29.44° C | 78% | 996.3 hPa | 0 mm | 0 m/s | - | - |
| 1777761573 | 29.44° C | 78% | 996.3 hPa | 0 mm | 0 m/s | - | - |
| 1777760971 | 29.44° C | 77% | 996.2 hPa | 0 mm | 0 m/s | - | - |
| 1777760371 | 29.44° C | 77% | 996 hPa | 0 mm | 0 m/s | - | - |
| 1777760073 | 29.44° C | 78% | 996 hPa | 0 mm | 0 m/s | - | - |
| 1777759471 | 30° C | 77% | 995.8 hPa | 0 mm | 0 m/s | - | - |
| 1777758871 | 30° C | 77% | 995.8 hPa | 0 mm | 0 m/s | - | - |
| 1777758573 | 30° C | 77% | 995.8 hPa | 0 mm | 0 m/s | - | - |
| 1777757971 | 30° C | 77% | 995.6 hPa | 0 mm | 0 m/s | - | - |
| 1777757371 | 30° C | 76% | 995.7 hPa | 0 mm | 0 m/s | - | - |
| 1777757073 | 30° C | 76% | 995.6 hPa | 0 mm | 0 m/s | - | - |
| 1777756771 | 30° C | 76% | 995.4 hPa | 0 mm | 0 m/s | - | - |
* Rain latest hour (hover to see other rain measurements)
** Current wind speed in m/s (hover to see current wind gust speed)